Overview Statistics Trail Chart Weather Telemetry Raw packets
 

This is the latest recevied weather packets stored in our database for station/object N7IGG. If no packets are shown the sender has not sent any weather packets the latest 10 day(s).

<< 43 44 45 46 47 48 49 >>
Time Temp. Humidity Pressure Rain* Wind** Luminosity Snow
1777878836 13.89° C 79% 1009.4 hPa 0 mm - 0 W/m² -
1777878534 13.89° C 79% 1009.6 hPa 0 mm - 0 W/m² -
1777878230 13.89° C 79% 1009.6 hPa 0 mm - 0 W/m² -
1777877926 13.89° C 78% 1009.4 hPa 0 mm - 0 W/m² -
1777877623 13.89° C 78% 1009.4 hPa 0 mm - 0 W/m² -
1777877320 13.89° C 78% 1009.4 hPa 0 mm - 0 W/m² -
1777877017 14.44° C 77% 1009.2 hPa 0 mm - 0 W/m² -
1777876715 14.44° C 77% 1009.3 hPa 0 mm - 0 W/m² -
1777876412 13.89° C 77% 1009.2 hPa 0 mm - 0 W/m² -
1777876108 14.44° C 76% 1009.3 hPa 0 mm - 0 W/m² -
1777875805 14.44° C 76% 1009.3 hPa 0 mm - 0 W/m² -
1777875501 14.44° C 75% 1009.2 hPa 0 mm - 0 W/m² -
1777875198 14.44° C 75% 1009.3 hPa 0 mm - 0 W/m² -
1777874895 14.44° C 75% 1009.3 hPa 0 mm - 0 W/m² -
1777874590 14.44° C 73% 1009.3 hPa 0 mm - 0 W/m² -
1777874288 15.56° C 71% 1009.4 hPa 0 mm - 0 W/m² -
1777873985 15° C 71% 1009.3 hPa 0 mm - 0 W/m² -
1777873682 15° C 71% 1009.3 hPa 0 mm - 0 W/m² -
1777873380 15° C 71% 1009.4 hPa 0 mm - 0 W/m² -
1777873076 15° C 71% 1009.4 hPa 0 mm - 0 W/m² -
1777872773 15.56° C 71% 1009.3 hPa 0 mm - 0 W/m² -
1777872470 15.56° C 70% 1009.3 hPa 0 mm - 0 W/m² -
1777872169 15.56° C 69% 1009.1 hPa 0 mm - 0 W/m² -
1777871865 16.67° C 63% 1009.3 hPa 0 mm - 0 W/m² -
1777871562 16.11° C 63% 1009.2 hPa 0 mm - 0 W/m² -

* Rain latest hour (hover to see other rain measurements)
** Current wind speed in m/s (hover to see current wind gust speed)